COSMOS 1275 DEB, 42171

Orbit data source: Space-Track

COSMOS 1275 DEB, 42171 is space debris in LEO originally from a launch on Thu, 04 Jun 1981 UTC launched from the Plesetsk Missile And Space Complex (PKMTR). Debris objects in space refer to the collection of defunct objects orbiting the Earth. Examples of debris include non-operational satellites, rocket bodies, and fragments generated from explosions, collisions, or faulty payload assembly.

Loading next visibility...
Identifier
42171, 1981-053SK
Orbit
LEO
Country
Flag of CISCIS
Related business
Manufacturer
Unknown
Mission
Spacecraft
Bus & Motor
Unknown
Mass
Unknown
Launch date (UTC)
1981-06-04 (45 years ago)
Launch vehicle
Unknown
Launch site
Plesetsk Missile And Space Complex (PKMTR)
Object type
Payload
Rocket body
Debris
Shape & HBR
Unknown shape, 0.1 m
Radar Cross Section
Small (<0.1 m²)

Expand to show TLE details & history
Last TLE update: 2 days ago

TLE from 2 days ago
0 COSMOS 1275 DEB
1 42171U 81053SK  26125.63809439  .00004873  00000-0  23735-2 0  9994
2 42171  83.0783 261.3020 0042929 133.3630 227.1140 14.17487995 99319
Epoch: 2026-05-05T15:18Z
TLE epoch observation values (Epoch: 2026-05-05T15:18:51.355Z)
Latitude
-0°
Longitude
168.07795°
Altitude
857.969 km
Speed
7.413 km/s
True Right ascension
17h 25m 12s
True Declination
0° 00' 00"
Sunlit
Object was in full shadow at epoch
Visualization orbit readout
Latitude
Unknown
Longitude
Unknown
Altitude
Unknown
Speed
Unknown
Apparent Right ascension
Unknown
Apparent Declination
Unknown
Sunlit
N/A
Visualization observer readout
Local Sidereal Time
21:09:21
Azimuth
Unknown
Elevation
Unknown
Doppler factor
Unknown
Orbital elements
Apogee altitude
861.894 km
Perigee altitude
799.998 km
Semi-major axis
7,209.083 km
Eccentricity
0.00429
Inclination
83.0783°
RAAN
261.302°
Arg. of periapsis
133.363°
True anomaly
226.75487°
Mean anomaly
227.114°
Eccentric anomaly
226.93431°
Mean motion
3.54587 °/min
Orbital period
101.53 mins
BSTAR
0.0023735
Loading maneuver chart data...
Computing Atmospheric mass density...

Documentation

Showing up to 5 results
|